Regional Weather Roundup
Issued by NWS

Home | Current Version | Previous Version | Text Only | Print | Product List | Glossary On
Versions: 1 2 3 4 5 6 7 8 9 10 11 12 13 14 15 16 17 18 19 20 21 22 23 24 25 26 27 28 29 30 31 32 33 34 35 36 37 38 39 40 41 42 43 44 45 46 47 48 49 50
000
ASUS43 KLSX 040207
RWRMO

WEATHER SUMMARY FOR MISSOURI
NATIONAL WEATHER SERVICE SPRINGFIELD MO
800 PM CST SAT DEC 03 2016

NOTE: "FAIR" INDICATES FEW OR NO CLOUDS BELOW 12,000 FEET WITH NO
       SIGNIFICANT WEATHER AND/OR OBSTRUCTIONS TO VISIBILITY.
       CURRENT SKY AND/OR WEATHER CONDITIONS ARE NOT AVAILABLE FOR
       CHILLICOTHE AND FARMINGTON.

MOZ001>031-035>038-043-044-053-054-040300-
...NORTHERN AND WESTERN MISSOURI...

CITY           SKY/WX    TMP DP  RH WIND       PRES   REMARKS
KANSAS CTY INT CLOUDY    45  30  55 SE8       30.12F
KANSAS C DTWN  CLOUDY    48  32  53 SE9       30.12F
LEE`S SUMMIT   CLOUDY    46  31  55 SE10      30.13F
ST JOSEPH      LGT RAIN  42  33  70 E6        30.13F
CHILLICOTHE      N/A     43  32  65 SE7       30.17F
KIRKSVILLE     CLOUDY    39  33  79 SE12      30.19F

$$
MOZ066>068-077>081-088>096-101>105-040300-
...SOUTHWEST MISSOURI...

CITY           SKY/WX    TMP DP  RH WIND       PRES   REMARKS
SPRINGFIELD    LGT RAIN  40  35  83 SE12      30.12F
JOPLIN         CLOUDY    42  38  85 VRB5      30.13R
BRANSON        CLOUDY    37  37 100 E15G21    30.12F FOG     WCI  28

$$
MOZ032>034-039>042-045>050-055>058-069>072-040300-
...CENTRAL MISSOURI...

CITY           SKY/WX    TMP DP  RH WIND       PRES   REMARKS
COLUMBIA       CLOUDY    41  32  70 E10       30.18F
JEFFERSON CITY CLOUDY    43  31  62 E7        30.20F
ROLLA          CLOUDY    41  31  67 SE8       30.18F
SEDALIA        CLOUDY    44  32  62 SE10      30.16F
WHITEMAN AFB   CLOUDY    44  34  68 SE7       30.14F
WARRENSBURG    CLOUDY    45  32  61 E5        30.16R
OSAGE BEACH    CLOUDY    43  31  62 SE7       30.19F

$$
MOZ051-052-059>065-040300-
...EAST CENTRAL MISSOURI...

CITY           SKY/WX    TMP DP  RH WIND       PRES   REMARKS
ST LOUIS INTL  CLOUDY    42  32  67 E9        30.25F
SPIRIT OF STL  CLOUDY    41  33  73 E5        30.24F
ST CHARLES     CLOUDY    39  35  86 E8        30.25F

$$
MOZ072>076-082>087-097>100-106>115-040300-
...SOUTH CENTRAL AND SOUTHEAST MISSOURI...

CITY           SKY/WX    TMP DP  RH WIND       PRES   REMARKS
CAPE GIRARDEAU CLOUDY    42  32  67 E3        30.27F
FARMINGTON     CLOUDY    40  32  73 SE6       30.23F
POPLAR BLUFF   LGT RAIN  40  37  89 E5        30.25F
WEST PLAINS    LGT RAIN  38  36  92 E8        30.18F

$$



USA.gov is the U.S. government's official web portal to all federal, state and local government web resources and services.